Location: Le Gr�zie
(43.6000°N, 13.5000°E)
Time: 11:43:54
(UTC+00:00)

RESURS DK-1 - Pass Details

Date: 09 April 2020
Orbit: 557 x 561 km, 69.9° (Epoch: 03 June)

Event Time Altitude Azimuth Distance (km) Brightness Sun altitude
Rises 19:08:05 0° 348° (NNW) 2,759 6.5 -15.4°
Reaches altitude 10° 19:11:15 10° 14° (NNE) 1,858 5.2 -15.9°
Maximum altitude 19:13:30 14° 47° (NE) 1,599 4.5 -16.2°
Enters shadow 19:14:20 14° 61° (ENE) 1,634 4.4 -16.4°
